Flag for Germany Weather past 2 weeks in Bad Hersfeld, Hesse, Germany

Now
57 °F

Light rain. Broken clouds.


Feels Like: 56 °F
Forecast: 54 / 67 °F
Wind: 6 mph from Southeast

Location: Fritzlar Airport

Current Time: May 3, 2015 at 10:02:55 PM

Latest Report: May 3, 2015 at 9:20 PM


Visibility: N/A

Pressure: 29.65 "Hg

Humidity: 94%

Dew point: 55 °F

Location of Bad HersfeldLocation

Historic Weather in Bad Hersfeld — Graph

°F

Bad Hersfeld temperature yesterday

Maximum temperature yesterday: 59 °F (at 3:20 PM)
Minimum temperature yesterday: 37 °F (at 5:20 AM)
Average temperature yesterday: 48 °F

Past Weeks' High & Low Weather Summary

 TemperatureHumidityPressure
High68 °F (Apr 21, 2:20 PM)100% (Apr 23, 3:20 AM)30.42 "Hg (Apr 23, 3:20 AM)
Low30 °F (Apr 19, 5:20 AM)21% (Apr 21, 6:20 PM)29.56 "Hg (Apr 27, 4:20 AM)
Average49 °F72%29.98 "Hg
* Reported Apr 18 8:20 PM — May 3 8:45 PM, Bad Hersfeld, Weather by CustomWeather, © 2015

Note: Actual official high and low records may vary slightly from our data, if they occured in-between our weather recording intervals... More about our weather records

Advertising

Bad Hersfeld weather history for previous 24 hours

 ConditionsComfort  
Time TempWeatherWind HumidityBarometerVisibility
8:45 PM
Sun, May 3
57 °FLight rain. Partly sunny.5 mph94%29.65 "HgN/A
8:20 PM57 °FLight rain. Broken clouds.5 mph94%29.65 "HgN/A
7:20 PM57 °FLight rain. Partly sunny.6 mph100%29.65 "HgN/A
6:45 PM57 °FRain. Partly sunny.6 mph94%29.65 "HgN/A
6:20 PM57 °FRain. Mostly cloudy.6 mph94%29.65 "Hg5 mi
6:04 PM57 °FRain. Mostly cloudy.6 mph94%29.65 "Hg5 mi
5:20 PM57 °FRain. More clouds than sun.7 mph94%29.65 "Hg6 mi
4:46 PM57 °FDrizzle. More clouds than sun.8 mph88%29.65 "Hg3 mi
4:20 PM59 °FDrizzle. Overcast.8 mph82%29.68 "Hg6 mi
3:20 PM57 °FDrizzle. More clouds than sun.10 mph88%29.68 "Hg3 mi
2:20 PM59 °FOvercast.8 mph77%29.71 "HgN/A
1:20 PM57 °FOvercast.7 mph77%29.71 "HgN/A
12:20 PM57 °FPartly sunny.6 mph77%29.71 "HgN/A
11:20 AM55 °FPartly sunny.2 mph77%29.71 "HgN/A
10:20 AM54 °FBroken clouds.3 mph77%29.74 "HgN/A
9:20 AM52 °FPartly sunny.2 mph77%29.74 "HgN/A
8:20 AM46 °FPartly sunny.3 mph87%29.74 "HgN/A
7:20 AM45 °FBroken clouds.3 mph87%29.74 "HgN/A
6:20 AM43 °FPartly cloudy.5 mph87%29.77 "HgN/A
5:20 AM43 °FPartly cloudy.3 mph87%29.77 "HgN/A
4:20 AM41 °FPartly cloudy.5 mph87%29.77 "HgN/A
3:20 AM43 °FPartly cloudy.5 mph87%29.80 "HgN/A
2:20 AM45 °FPartly cloudy.3 mph81%29.80 "HgN/A
1:20 AM43 °FPassing clouds.5 mph87%29.83 "HgN/A
12:20 AM45 °FPassing clouds.3 mph81%29.83 "HgN/A
11:20 PM
Sat, May 2
45 °FPassing clouds.2 mph87%29.86 "HgN/A
10:20 PM45 °FPassing clouds.3 mph87%29.86 "HgN/A
Weather by CustomWeather, © 2015

See weather overviewHow to use our weather pages